Weather History for Greenville Downtown, SC

Change the Weather History Date:

Wednesday, July 31, 2013

  Actual Average Record
Temperature  
Mean Temperature 76 °F -  
Max Temperature 81 °F 86 °F 102 °F (1999)
Min Temperature 73 °F 68 °F 60 °F (1997)
Cooling Degree Days 12    
Growing Degree Days 26 (Base 50)    
Moisture  
Dew Point 69 °F    
Average Humidity 81    
Maximum Humidity 91    
Minimum Humidity 66    
Precipitation  
Precipitation 0.10 in - - ()
Sea Level Pressure  
Sea Level Pressure 30.08 in    
Wind  
Wind Speed 5 mph (South)    
Max Wind Speed 9 mph    
Max Gust Speed -    
Visibility 10 miles    
Events Rain , Thunderstorm    
Averages and records for this station are not official NWS values.
T = Trace of Precipitation, MM = Missing Value Source: NWS Daily Summary

Daily Weather History Graph

Daily Weather History Graph

Search for Another Location

Airport:

Trip Planner

Search our weather history database for the weather conditions in past years. The results will help you decide how hot, cold, wet, or windy it might be!

Date:

Astronomy

Jul. 31, 2013 Rise Set
Actual Time 6:38 AM EDT 8:32 PM EDT
Civil Twilight 6:10 AM EDT 9:00 PM EDT
Nautical Twilight 5:37 AM EDT 9:33 PM EDT
Astronomical Twilight 5:01 AM EDT 10:09 PM EDT
Moon 1:32 AM EDT (7/31) 3:46 PM EDT (7/31)
Length of Visible Light 14h 49m
Length of Day
13h 53m
Waning Crescent, 32% of the Moon is Illuminated
Jul 31
Waning Crescent
Aug 6
New
Aug 14
First Quarter
Aug 20
Full
Aug 28
Last Quarter

Hourly Weather History & Observations

Time (EDT) Temp. Heat Index Dew Point Humidity Pressure Visibility Wind Dir Wind Speed Gust Speed Precip Events Conditions
12:53 AM 75.0 °F - 71.1 °F 87% 30.16 in 10.0 mi NW 5.8 mph - 0.00 in Rain Light Rain
1:53 AM 73.9 °F - 71.1 °F 91% 30.14 in 10.0 mi NNE 3.5 mph - 0.00 in   Mostly Cloudy
3:53 AM 73.0 °F - 70.0 °F 90% 30.13 in 10.0 mi Calm Calm - N/A   Clear
4:53 AM 73.0 °F - 70.0 °F 90% 30.12 in 10.0 mi NNE 6.9 mph - 0.00 in   Scattered Clouds
5:53 AM 73.0 °F - 69.1 °F 87% 30.12 in 10.0 mi NNE 6.9 mph - 0.00 in Rain Light Rain
6:53 AM 73.0 °F - 69.1 °F 87% 30.14 in 10.0 mi NNE 3.5 mph - N/A   Mostly Cloudy
7:53 AM 73.0 °F - 68.0 °F 84% 30.14 in 10.0 mi ENE 8.1 mph - N/A   Scattered Clouds
8:53 AM 73.9 °F - 68.0 °F 82% 30.15 in 10.0 mi NE 5.8 mph - N/A   Scattered Clouds
9:53 AM 73.9 °F - 68.0 °F 82% 30.15 in 10.0 mi ENE 6.9 mph - N/A   Overcast
10:53 AM 75.9 °F - 69.1 °F 79% 30.13 in 10.0 mi NE 5.8 mph - 0.00 in   Mostly Cloudy
11:53 AM 80.1 °F 83.6 °F 71.1 °F 74% 30.11 in 10.0 mi NE 5.8 mph - N/A   Scattered Clouds
12:53 PM 80.1 °F 82.9 °F 69.1 °F 69% 30.10 in 10.0 mi SE 4.6 mph - N/A   Overcast
1:53 PM 80.1 °F 83.2 °F 70.0 °F 71% 30.09 in 10.0 mi Variable 5.8 mph - N/A   Overcast
2:32 PM 80.6 °F 83.9 °F 69.8 °F 70% 30.10 in 10.0 mi South 3.5 mph - N/A   Overcast
2:53 PM 79.0 °F - 71.1 °F 77% 30.07 in 10.0 mi SSW 4.6 mph - 0.00 in Rain Light Rain
3:53 PM 75.9 °F - 68.0 °F 76% 30.04 in 10.0 mi West 3.5 mph - 0.09 in   Overcast
4:53 PM 80.1 °F 82.7 °F 68.0 °F 67% 30.02 in 10.0 mi SW 9.2 mph - 0.00 in   Scattered Clouds
5:53 PM 78.1 °F - 66.0 °F 66% 30.01 in 10.0 mi WSW 6.9 mph - N/A   Mostly Cloudy
6:53 PM 79.0 °F - 66.9 °F 66% 29.99 in 10.0 mi South 4.6 mph - N/A   Mostly Cloudy
7:53 PM 78.1 °F - 66.9 °F 68% 30.01 in 10.0 mi South 4.6 mph - N/A   Partly Cloudy
8:53 PM 75.9 °F - 68.0 °F 76% 30.02 in 10.0 mi South 5.8 mph - N/A   Mostly Cloudy
9:53 PM 75.0 °F - 69.1 °F 82% 30.02 in 10.0 mi South 8.1 mph - N/A   Overcast
10:35 PM 73.4 °F - 69.8 °F 88% 30.04 in 10.0 mi South 6.9 mph - N/A   Overcast
10:40 PM 73.4 °F - 69.8 °F 88% 30.04 in 10.0 mi South 4.6 mph - N/A   Overcast
10:51 PM 73.4 °F - 69.8 °F 88% 30.05 in 10.0 mi SW 5.8 mph - N/A   Overcast
10:53 PM 73.9 °F - 70.0 °F 87% 30.02 in 10.0 mi SSW 6.9 mph - N/A   Overcast
11:11 PM 73.4 °F - 69.8 °F 88% 30.05 in 10.0 mi SSW 8.1 mph - 0.00 in Rain , Thunderstorm Light Rain
11:26 PM 73.4 °F - 69.8 °F 88% 30.04 in 8.0 mi SSW 6.9 mph - 0.01 in Rain Light Rain
11:53 PM 73.0 °F - 70.0 °F 90% 30.01 in 10.0 mi SSW 8.1 mph - 0.01 in   Overcast